Погода в Зольном

Россия / Самарская область     53°26′39″N   49°47′25″E
темп.,
°C
ветер,
м/с
пор.,
м/с
влажн.,
%
обл.,
%
осадки,
мм/ч
давл.,
гПа
погр.,
м
11 апреля, вс
вс1101:00+11юв41381100 0.0 1021311
04:00+11ююв41178100 0.0 1022265
07:00+9ю1289100 0.0 102466
10:00+13ю3872100 0.0 1026432
13:00+16ю2559100 0.0 1027581
16:00+15сз2367100 0.0 1028378
19:00+12ссв2489100 0.0 1029121
22:00+10св2494100 0.0 103068
12 апреля, пн
пн1201:00+10в2290100 0.0 103017
04:00+10вюв1183100 0.0 103211
07:00+9вюв228199 0.0 103213
10:00+14в236077 0.0 1033325
13:00+17в345045 0.0 1033877
16:00+18вюв344795 0.0 10331095
19:00+15вюв2464100 0.0 103265
22:00+12вюв237598 0.0 103445
13 апреля, вт
вт1301:00+10юв2379100 0.0 103438
04:00+9юв228281 0.0 103427
07:00+8юв237564 0.0 103456
10:00+13юв364372 0.0 1034436
13:00+16юв453166 0.0 1033857
16:00+17юв45296 0.0 10321051
19:00+14юв23455 0.0 103154
22:00+11юв22535 0.0 103133
14 апреля, ср
ср1401:00+9ююв22595 0.0 103132
04:00+7юв226052 0.0 103116
07:00+7вюв226212 0.0 103033
10:00+13юв344346 0.0 1029381
13:00+17юв34335 0.0 1028869
16:00+18юв33311 0.0 10261128
19:00+15вюв22460 0.0 102533
22:00+12вюв22565 0.0 102517
15 апреля, чт
чт1501:00+10вюв22675 0.0 102413
04:00+9вюв22760 0.0 102311
07:00+9вюв22775 0.0 102231
10:00+15вюв34565 0.0 1021471
13:00+18юв34420 0.0 10191207
16:00+19юв33340 0.0 10171566
19:00+16юв23430 0.0 101672
22:00+12ююв22500 0.0 101516